Time,TemperatureF,DewpointF,PressureIn,WindDirection,WindDirectionDegrees,WindSpeedMPH,WindSpeedGustMPH,Humidity,HourlyPrecipIn,Conditions,Clouds,dailyrainin,SoftwareType,DateUTC
2013-08-29 00:00:00,71.1,69.0,30.02,NE,45,0.0,0.0,93,0.00,,,0.00,WeatherTracker,2013-08-29 05:00:00,
2013-08-29 00:10:00,70.9,68.8,30.02,NE,45,0.0,0.0,93,0.00,,,0.00,WeatherTracker,2013-08-29 05:10:00,
2013-08-29 00:15:00,70.9,69.1,30.02,NE,45,0.0,0.0,94,0.00,,,0.00,WeatherTracker,2013-08-29 05:15:00,
2013-08-29 00:20:00,70.8,69.0,30.02,NE,45,0.0,0.0,94,0.00,,,0.00,WeatherTracker,2013-08-29 05:20:00,
2013-08-29 00:25:00,70.8,69.0,30.02,NE,45,0.0,0.0,94,0.00,,,0.00,WeatherTracker,2013-08-29 05:25:00,
2013-08-29 00:35:00,70.9,69.1,30.02,NE,45,0.0,0.0,94,0.00,,,0.00,WeatherTracker,2013-08-29 05:35:00,
2013-08-29 00:45:00,70.8,69.0,30.02,NE,45,0.0,0.0,94,0.00,,,0.00,WeatherTracker,2013-08-29 05:45:00,
2013-08-29 00:50:00,70.7,68.9,30.02,NE,45,0.0,0.0,94,0.00,,,0.00,WeatherTracker,2013-08-29 05:50:00,
2013-08-29 00:55:00,70.6,68.8,30.02,NE,45,0.0,0.0,94,0.00,,,0.00,WeatherTracker,2013-08-29 05:55:00,
2013-08-29 01:00:00,70.6,68.8,30.02,NE,45,0.0,0.0,94,0.00,,,0.00,WeatherTracker,2013-08-29 06:00:00,
2013-08-29 01:05:00,70.5,68.7,30.01,NE,45,0.0,0.0,94,0.00,,,0.00,WeatherTracker,2013-08-29 06:05:00,
2013-08-29 01:15:00,70.2,68.7,30.01,NE,45,0.0,0.0,95,0.00,,,0.00,WeatherTracker,2013-08-29 06:15:00,
2013-08-29 01:20:00,70.1,68.6,30.02,NE,45,0.0,0.0,95,0.00,,,0.00,WeatherTracker,2013-08-29 06:20:00,
2013-08-29 01:25:00,70.1,68.6,30.02,NE,45,0.0,0.0,95,0.00,,,0.00,WeatherTracker,2013-08-29 06:25:00,
2013-08-29 01:35:00,69.9,68.4,30.01,NE,45,0.0,0.0,95,0.00,,,0.00,WeatherTracker,2013-08-29 06:35:00,
2013-08-29 01:40:00,69.9,68.4,30.01,NE,45,0.0,0.0,95,0.00,,,0.00,WeatherTracker,2013-08-29 06:40:00,
2013-08-29 01:50:00,69.6,68.1,30.01,NE,45,0.0,0.0,95,0.00,,,0.00,WeatherTracker,2013-08-29 06:50:00,
2013-08-29 01:55:00,69.5,68.0,30.01,NE,45,0.0,0.0,95,0.00,,,0.00,WeatherTracker,2013-08-29 06:55:00,
2013-08-29 02:00:00,69.4,67.6,30.01,NE,45,0.0,0.0,94,0.00,,,0.00,WeatherTracker,2013-08-29 07:00:00,
2013-08-29 02:05:00,69.3,67.5,30.01,NE,45,0.0,0.0,94,0.00,,,0.00,WeatherTracker,2013-08-29 07:05:00,
2013-08-29 02:15:00,69.0,67.2,30.01,NE,45,0.0,0.0,94,0.00,,,0.00,WeatherTracker,2013-08-29 07:15:00,
2013-08-29 02:25:00,68.8,67.0,30.01,NE,45,0.0,0.0,94,0.00,,,0.00,WeatherTracker,2013-08-29 07:25:00,
2013-08-29 02:35:00,68.6,66.8,30.01,NE,45,0.0,0.0,94,0.00,,,0.00,WeatherTracker,2013-08-29 07:35:00,
2013-08-29 02:40:00,68.5,66.7,30.01,NE,45,0.0,0.0,94,0.00,,,0.00,WeatherTracker,2013-08-29 07:40:00,
2013-08-29 02:45:00,68.4,66.6,30.00,NE,45,0.0,0.0,94,0.00,,,0.00,WeatherTracker,2013-08-29 07:45:00,
2013-08-29 02:50:00,68.4,66.9,30.00,NE,45,0.0,0.0,95,0.00,,,0.00,WeatherTracker,2013-08-29 07:50:00,
2013-08-29 02:55:00,68.4,66.9,30.00,NE,45,0.0,0.0,95,0.00,,,0.00,WeatherTracker,2013-08-29 07:55:00,
2013-08-29 03:05:00,68.4,66.9,30.00,NE,45,0.0,0.0,95,0.00,,,0.00,WeatherTracker,2013-08-29 08:05:00,
2013-08-29 03:15:00,68.5,67.0,30.00,NE,45,0.0,0.0,95,0.00,,,0.00,WeatherTracker,2013-08-29 08:15:00,
2013-08-29 03:20:00,68.5,67.0,30.00,NE,45,0.0,0.0,95,0.00,,,0.00,WeatherTracker,2013-08-29 08:20:00,
2013-08-29 03:30:00,68.4,66.9,30.00,NE,45,0.0,0.0,95,0.00,,,0.00,WeatherTracker,2013-08-29 08:30:00,
2013-08-29 03:35:00,68.3,66.8,30.00,NE,45,0.0,0.0,95,0.00,,,0.00,WeatherTracker,2013-08-29 08:35:00,
2013-08-29 03:40:00,68.3,66.8,30.00,NE,45,0.0,0.0,95,0.00,,,0.00,WeatherTracker,2013-08-29 08:40:00,
2013-08-29 03:45:00,68.2,66.7,30.00,NE,45,0.0,0.0,95,0.00,,,0.00,WeatherTracker,2013-08-29 08:45:00,
2013-08-29 03:55:00,68.3,66.8,30.00,NE,45,0.0,0.0,95,0.00,,,0.00,WeatherTracker,2013-08-29 08:55:00,
2013-08-29 04:05:00,68.1,66.6,30.00,NE,45,0.0,0.0,95,0.00,,,0.00,WeatherTracker,2013-08-29 09:05:00,
2013-08-29 04:10:00,68.1,66.6,30.00,NE,45,0.0,0.0,95,0.00,,,0.00,WeatherTracker,2013-08-29 09:10:00,
2013-08-29 04:20:00,68.2,66.7,30.00,NE,45,0.0,0.0,95,0.00,,,0.00,WeatherTracker,2013-08-29 09:20:00,
2013-08-29 04:30:00,68.2,66.7,30.00,NE,45,0.0,0.0,95,0.00,,,0.00,WeatherTracker,2013-08-29 09:30:00,
2013-08-29 04:35:00,68.1,66.6,30.00,NE,45,0.0,0.0,95,0.00,,,0.00,WeatherTracker,2013-08-29 09:35:00,
2013-08-29 04:40:00,68.2,66.7,30.00,NE,45,0.0,0.0,95,0.00,,,0.00,WeatherTracker,2013-08-29 09:40:00,
2013-08-29 04:50:00,68.2,67.0,30.00,NE,45,0.0,0.0,96,0.00,,,0.00,WeatherTracker,2013-08-29 09:50:00,
2013-08-29 04:55:00,68.1,66.6,30.01,NE,45,0.0,0.0,95,0.00,,,0.00,WeatherTracker,2013-08-29 09:55:00,
2013-08-29 05:05:00,68.0,66.5,30.01,NE,45,0.0,0.0,95,0.00,,,0.00,WeatherTracker,2013-08-29 10:05:00,
2013-08-29 05:15:00,67.8,66.3,30.01,NE,45,0.0,0.0,95,0.00,,,0.00,WeatherTracker,2013-08-29 10:15:00,
2013-08-29 05:25:00,67.6,66.1,30.01,NE,45,0.0,0.0,95,0.00,,,0.00,WeatherTracker,2013-08-29 10:25:00,
2013-08-29 05:30:00,67.6,66.1,30.01,NE,45,0.0,0.0,95,0.00,,,0.00,WeatherTracker,2013-08-29 10:30:00,
2013-08-29 05:35:00,67.5,66.0,30.01,NE,45,0.0,0.0,95,0.00,,,0.00,WeatherTracker,2013-08-29 10:35:00,
2013-08-29 05:45:00,67.3,65.8,30.02,NE,45,0.0,0.0,95,0.00,,,0.00,WeatherTracker,2013-08-29 10:45:00,
2013-08-29 05:55:00,67.3,65.8,30.02,NE,45,0.0,0.0,95,0.00,,,0.00,WeatherTracker,2013-08-29 10:55:00,
2013-08-29 06:05:00,67.4,65.9,30.02,NE,45,0.0,0.0,95,0.00,,,0.00,WeatherTracker,2013-08-29 11:05:00,
2013-08-29 06:10:00,67.3,65.8,30.02,NE,45,0.0,0.0,95,0.00,,,0.00,WeatherTracker,2013-08-29 11:10:00,
2013-08-29 06:20:00,67.1,65.6,30.02,NE,45,0.0,0.0,95,0.00,,,0.00,WeatherTracker,2013-08-29 11:20:00,
2013-08-29 06:30:00,67.2,65.7,30.03,NE,45,0.0,0.0,95,0.00,,,0.00,WeatherTracker,2013-08-29 11:30:00,
2013-08-29 06:40:00,67.3,65.8,30.04,NE,45,0.0,0.0,95,0.00,,,0.00,WeatherTracker,2013-08-29 11:40:00,
2013-08-29 06:50:00,67.5,66.0,30.04,NE,45,0.0,0.0,95,0.00,,,0.00,WeatherTracker,2013-08-29 11:50:00,
2013-08-29 07:00:00,68.0,66.5,30.04,NE,45,0.0,0.0,95,0.00,,,0.00,WeatherTracker,2013-08-29 12:00:00,
2013-08-29 07:10:00,68.6,67.1,30.04,NE,45,0.0,0.0,95,0.00,,,0.00,WeatherTracker,2013-08-29 12:10:00,
2013-08-29 07:20:00,69.9,68.7,30.04,NE,45,0.0,0.0,96,0.00,,,0.00,WeatherTracker,2013-08-29 12:20:00,
2013-08-29 07:25:00,70.4,68.9,30.04,NE,45,0.0,0.0,95,0.00,,,0.00,WeatherTracker,2013-08-29 12:25:00,
2013-08-29 07:30:00,70.7,68.9,30.04,NE,45,0.0,0.0,94,0.00,,,0.00,WeatherTracker,2013-08-29 12:30:00,
2013-08-29 07:40:00,71.6,69.5,30.05,NE,45,0.0,0.0,93,0.00,,,0.00,WeatherTracker,2013-08-29 12:40:00,
2013-08-29 07:45:00,72.2,70.1,30.05,NE,45,0.0,0.0,93,0.00,,,0.00,WeatherTracker,2013-08-29 12:45:00,
2013-08-29 07:55:00,73.1,70.3,30.05,NE,45,0.0,0.0,91,0.00,,,0.00,WeatherTracker,2013-08-29 12:55:00,
2013-08-29 08:00:00,73.6,70.8,30.05,NE,45,0.0,0.0,91,0.00,,,0.00,WeatherTracker,2013-08-29 13:00:00,
2013-08-29 08:05:00,74.3,71.2,30.05,NE,40,0.0,0.0,90,0.00,,,0.00,WeatherTracker,2013-08-29 13:05:00,
2013-08-29 08:10:00,74.8,71.3,30.05,NE,40,0.0,0.0,89,0.00,,,0.00,WeatherTracker,2013-08-29 13:10:00,
2013-08-29 08:20:00,75.9,72.4,30.05,NE,40,0.0,0.0,89,0.00,,,0.00,WeatherTracker,2013-08-29 13:20:00,
2013-08-29 08:30:00,77.0,72.5,30.05,NE,38,0.0,2.0,86,0.00,,,0.00,WeatherTracker,2013-08-29 13:30:00,
2013-08-29 08:35:00,77.4,72.5,30.05,NNE,31,0.0,2.0,85,0.00,,,0.00,WeatherTracker,2013-08-29 13:35:00,
2013-08-29 08:40:00,77.8,72.2,30.05,NNE,31,0.0,1.0,83,0.00,,,0.00,WeatherTracker,2013-08-29 13:40:00,
2013-08-29 08:45:00,78.0,72.0,30.05,NNW,344,1.0,2.0,82,0.00,,,0.00,WeatherTracker,2013-08-29 13:45:00,
2013-08-29 08:55:00,78.7,73.1,30.05,NNW,343,0.0,3.0,83,0.00,,,0.00,WeatherTracker,2013-08-29 13:55:00,
2013-08-29 09:05:00,79.7,73.7,30.05,North,355,0.0,4.0,82,0.00,,,0.00,WeatherTracker,2013-08-29 14:05:00,
2013-08-29 09:15:00,80.6,74.6,30.05,North,360,0.0,2.0,82,0.00,,,0.00,WeatherTracker,2013-08-29 14:15:00,
2013-08-29 09:20:00,81.0,73.5,30.05,NNW,344,0.0,3.0,78,0.00,,,0.00,WeatherTracker,2013-08-29 14:20:00,
2013-08-29 09:30:00,81.6,74.1,30.05,North,355,1.0,4.0,78,0.00,,,0.00,WeatherTracker,2013-08-29 14:30:00,
2013-08-29 09:35:00,82.1,74.5,30.05,North,5,0.0,3.0,78,0.00,,,0.00,WeatherTracker,2013-08-29 14:35:00,
2013-08-29 09:40:00,82.5,74.5,30.05,North,11,0.0,3.0,77,0.00,,,0.00,WeatherTracker,2013-08-29 14:40:00,
2013-08-29 09:50:00,83.2,74.8,30.05,North,360,0.0,6.0,76,0.00,,,0.00,WeatherTracker,2013-08-29 14:50:00,
2013-08-29 09:55:00,83.5,74.7,30.05,NNE,22,0.0,6.0,75,0.00,,,0.00,WeatherTracker,2013-08-29 14:55:00,
2013-08-29 10:00:00,83.9,75.5,30.05,North,355,0.0,7.0,76,0.00,,,0.00,WeatherTracker,2013-08-29 15:00:00,
2013-08-29 10:05:00,84.3,75.1,30.05,NNW,329,0.0,7.0,74,0.00,,,0.00,WeatherTracker,2013-08-29 15:05:00,
2013-08-29 10:15:00,85.0,76.2,30.05,North,360,0.0,4.0,75,0.00,,,0.00,WeatherTracker,2013-08-29 15:15:00,
2013-08-29 10:20:00,85.4,75.7,30.05,North,5,0.0,4.0,73,0.00,,,0.00,WeatherTracker,2013-08-29 15:20:00,
2013-08-29 10:30:00,85.8,75.3,30.05,NNW,344,0.0,4.0,71,0.00,,,0.00,WeatherTracker,2013-08-29 15:30:00,
2013-08-29 10:35:00,85.7,74.8,30.05,NNW,345,0.0,4.0,70,0.00,,,0.00,WeatherTracker,2013-08-29 15:35:00,
2013-08-29 10:40:00,85.9,75.4,30.05,NNW,330,1.0,4.0,71,0.00,,,0.00,WeatherTracker,2013-08-29 15:40:00,
2013-08-29 10:45:00,86.0,74.6,30.05,NW,319,2.0,7.0,69,0.00,,,0.00,WeatherTracker,2013-08-29 15:45:00,
2013-08-29 10:55:00,86.6,75.6,30.04,NNW,335,0.0,4.0,70,0.00,,,0.00,WeatherTracker,2013-08-29 15:55:00,
2013-08-29 11:00:00,87.0,75.1,30.04,NNW,341,0.0,4.0,68,0.00,,,0.00,WeatherTracker,2013-08-29 16:00:00,
2013-08-29 11:05:00,87.0,75.6,30.04,NNW,337,0.0,3.0,69,0.00,,,0.00,WeatherTracker,2013-08-29 16:05:00,
2013-08-29 11:15:00,87.5,75.6,30.04,NNW,342,0.0,5.0,68,0.00,,,0.00,WeatherTracker,2013-08-29 16:15:00,
2013-08-29 11:25:00,87.6,74.8,30.03,NNW,331,0.0,5.0,66,0.00,,,0.00,WeatherTracker,2013-08-29 16:25:00,
2013-08-29 11:35:00,88.3,75.9,30.03,NNE,28,0.0,2.0,67,0.00,,,0.00,WeatherTracker,2013-08-29 16:35:00,
2013-08-29 11:40:00,88.9,76.5,30.03,NW,321,2.0,4.0,67,0.00,,,0.00,WeatherTracker,2013-08-29 16:40:00,
2013-08-29 11:50:00,88.7,75.8,30.03,NNW,346,0.0,5.0,66,0.00,,,0.00,WeatherTracker,2013-08-29 16:50:00,
2013-08-29 12:00:00,88.8,76.4,30.03,North,5,0.0,6.0,67,0.00,,,0.00,WeatherTracker,2013-08-29 17:00:00,
2013-08-29 12:10:00,88.9,76.5,30.02,North,350,0.0,8.0,67,0.00,,,0.00,WeatherTracker,2013-08-29 17:10:00,
2013-08-29 12:15:00,89.0,75.2,30.02,North,355,0.0,3.0,64,0.00,,,0.00,WeatherTracker,2013-08-29 17:15:00,
2013-08-29 12:25:00,88.8,75.0,30.02,NNW,347,0.0,4.0,64,0.00,,,0.00,WeatherTracker,2013-08-29 17:25:00,
2013-08-29 12:35:00,88.5,74.7,30.01,NNW,345,0.0,4.0,64,0.00,,,0.00,WeatherTracker,2013-08-29 17:35:00,
2013-08-29 12:40:00,88.9,75.6,30.01,NW,323,0.0,4.0,65,0.00,,,0.00,WeatherTracker,2013-08-29 17:40:00,
2013-08-29 12:50:00,89.5,75.7,30.01,NW,316,0.0,7.0,64,0.00,,,0.00,WeatherTracker,2013-08-29 17:50:00,
2013-08-29 12:55:00,89.5,75.7,30.01,WNW,287,0.0,5.0,64,0.00,,,0.00,WeatherTracker,2013-08-29 17:55:00,
2013-08-29 13:05:00,89.5,74.7,30.01,NNE,15,0.0,3.0,62,0.00,,,0.00,WeatherTracker,2013-08-29 18:05:00,
2013-08-29 13:10:00,88.8,74.5,30.00,NNW,334,0.0,3.0,63,0.00,,,0.00,WeatherTracker,2013-08-29 18:10:00,
2013-08-29 13:20:00,89.6,75.8,30.00,NNE,24,0.0,4.0,64,0.00,,,0.00,WeatherTracker,2013-08-29 18:20:00,
2013-08-29 13:30:00,89.0,75.7,30.00,NNW,342,0.0,5.0,65,0.00,,,0.00,WeatherTracker,2013-08-29 18:30:00,
2013-08-29 13:40:00,90.0,76.1,29.99,NE,53,0.0,3.0,64,0.00,,,0.00,WeatherTracker,2013-08-29 18:40:00,
2013-08-29 13:50:00,90.0,74.7,29.99,NW,324,0.0,8.0,61,0.00,,,0.00,WeatherTracker,2013-08-29 18:50:00,
2013-08-29 13:55:00,90.1,75.3,29.99,NNW,348,0.0,4.0,62,0.00,,,0.00,WeatherTracker,2013-08-29 18:55:00,
2013-08-29 14:05:00,89.7,75.4,29.98,North,350,0.0,1.0,63,0.00,,,0.00,WeatherTracker,2013-08-29 19:05:00,
2013-08-29 14:10:00,90.2,75.9,29.98,North,11,0.0,2.0,63,0.00,,,0.00,WeatherTracker,2013-08-29 19:10:00,
2013-08-29 14:15:00,89.5,76.1,29.98,North,9,0.0,2.0,65,0.00,,,0.00,WeatherTracker,2013-08-29 19:15:00,
2013-08-29 14:20:00,89.7,75.9,29.98,North,5,0.0,0.0,64,0.00,,,0.00,WeatherTracker,2013-08-29 19:20:00,
2013-08-29 14:25:00,90.1,74.8,29.98,NNW,337,0.0,5.0,61,0.00,,,0.00,WeatherTracker,2013-08-29 19:25:00,
2013-08-29 14:35:00,90.8,75.0,29.97,NNW,346,0.0,4.0,60,0.00,,,0.00,WeatherTracker,2013-08-29 19:35:00,
2013-08-29 14:40:00,90.8,75.9,29.97,NNW,335,0.0,4.0,62,0.00,,,0.00,WeatherTracker,2013-08-29 19:40:00,
2013-08-29 14:50:00,91.5,75.1,29.97,NW,317,0.0,3.0,59,0.00,,,0.00,WeatherTracker,2013-08-29 19:50:00,
2013-08-29 14:55:00,91.5,75.6,29.97,NNW,327,0.0,3.0,60,0.00,,,0.00,WeatherTracker,2013-08-29 19:55:00,
2013-08-29 15:05:00,90.4,74.6,29.96,NNW,327,0.0,3.0,60,0.00,,,0.00,WeatherTracker,2013-08-29 20:05:00,
2013-08-29 15:10:00,90.6,75.3,29.96,NW,321,0.0,2.0,61,0.00,,,0.00,WeatherTracker,2013-08-29 20:10:00,
2013-08-29 15:20:00,90.5,75.2,29.96,North,355,0.0,4.0,61,0.00,,,0.00,WeatherTracker,2013-08-29 20:20:00,
2013-08-29 15:30:00,89.8,76.0,29.96,North,355,0.0,1.0,64,0.00,,,0.00,WeatherTracker,2013-08-29 20:30:00,
2013-08-29 15:35:00,90.3,76.4,29.96,North,355,0.0,0.0,64,0.00,,,0.00,WeatherTracker,2013-08-29 20:35:00,
2013-08-29 15:40:00,90.7,74.9,29.96,North,355,0.0,0.0,60,0.00,,,0.00,WeatherTracker,2013-08-29 20:40:00,
2013-08-29 15:50:00,90.1,75.8,29.96,North,355,0.0,0.0,63,0.00,,,0.00,WeatherTracker,2013-08-29 20:50:00,
2013-08-29 15:55:00,89.4,76.0,29.96,North,360,0.0,0.0,65,0.00,,,0.00,WeatherTracker,2013-08-29 20:55:00,
2013-08-29 16:00:00,88.6,76.7,29.96,North,360,0.0,0.0,68,0.00,,,0.00,WeatherTracker,2013-08-29 21:00:00,
2013-08-29 16:05:00,88.2,76.7,29.96,North,360,0.0,0.0,69,0.00,,,0.00,WeatherTracker,2013-08-29 21:05:00,
2013-08-29 16:10:00,88.5,75.7,29.96,North,360,0.0,0.0,66,0.00,,,0.00,WeatherTracker,2013-08-29 21:10:00,
2013-08-29 16:15:00,89.1,75.3,29.96,North,355,0.0,0.0,64,0.00,,,0.00,WeatherTracker,2013-08-29 21:15:00,
2013-08-29 16:20:00,89.4,74.6,29.95,NW,311,0.0,4.0,62,0.00,,,0.00,WeatherTracker,2013-08-29 21:20:00,
2013-08-29 16:30:00,89.6,74.8,29.95,NW,316,0.0,2.0,62,0.00,,,0.00,WeatherTracker,2013-08-29 21:30:00,
2013-08-29 16:35:00,89.3,75.5,29.95,NW,316,0.0,1.0,64,0.00,,,0.00,WeatherTracker,2013-08-29 21:35:00,
2013-08-29 16:40:00,88.7,75.8,29.95,NW,316,0.0,1.0,66,0.00,,,0.00,WeatherTracker,2013-08-29 21:40:00,
2013-08-29 16:45:00,88.7,76.7,29.95,NW,316,0.0,1.0,68,0.00,,,0.00,WeatherTracker,2013-08-29 21:45:00,
2013-08-29 16:55:00,89.0,76.6,29.95,NNW,335,0.0,0.0,67,0.00,,,0.00,WeatherTracker,2013-08-29 21:55:00,
2013-08-29 17:05:00,89.3,76.9,29.95,NNW,333,0.0,2.0,67,0.00,,,0.00,WeatherTracker,2013-08-29 22:05:00,
2013-08-29 17:10:00,89.4,77.0,29.95,NNW,337,0.0,2.0,67,0.00,,,0.00,WeatherTracker,2013-08-29 22:10:00,
2013-08-29 17:20:00,89.3,75.5,29.95,NNW,346,0.0,6.0,64,0.00,,,0.00,WeatherTracker,2013-08-29 22:20:00,
2013-08-29 17:25:00,89.2,76.8,29.95,NNW,346,0.0,6.0,67,0.00,,,0.00,WeatherTracker,2013-08-29 22:25:00,
2013-08-29 17:30:00,89.1,75.8,29.95,NNW,346,0.0,0.0,65,0.00,,,0.00,WeatherTracker,2013-08-29 22:30:00,
2013-08-29 17:40:00,88.9,76.0,29.95,NNW,348,0.0,0.0,66,0.00,,,0.00,WeatherTracker,2013-08-29 22:40:00,
2013-08-29 17:45:00,88.7,75.4,29.95,NNW,346,0.0,3.0,65,0.00,,,0.00,WeatherTracker,2013-08-29 22:45:00,
2013-08-29 17:50:00,88.6,76.2,29.95,NNW,346,0.0,3.0,67,0.00,,,0.00,WeatherTracker,2013-08-29 22:50:00,
2013-08-29 18:00:00,88.4,76.5,29.94,NNW,346,0.0,0.0,68,0.00,,,0.00,WeatherTracker,2013-08-29 23:00:00,
2013-08-29 18:05:00,88.3,76.4,29.94,NNW,346,0.0,0.0,68,0.00,,,0.00,WeatherTracker,2013-08-29 23:05:00,
2013-08-29 18:15:00,88.0,76.5,29.95,NNW,346,0.0,0.0,69,0.00,,,0.00,WeatherTracker,2013-08-29 23:15:00,
2013-08-29 18:20:00,87.8,76.8,29.94,NNW,346,0.0,0.0,70,0.00,,,0.00,WeatherTracker,2013-08-29 23:20:00,
2013-08-29 18:25:00,87.5,76.9,29.95,NNW,346,0.0,0.0,71,0.00,,,0.00,WeatherTracker,2013-08-29 23:25:00,
2013-08-29 18:30:00,87.2,76.6,29.95,NNW,346,0.0,0.0,71,0.00,,,0.00,WeatherTracker,2013-08-29 23:30:00,
2013-08-29 18:35:00,86.7,76.6,29.95,NNW,346,0.0,0.0,72,0.00,,,0.00,WeatherTracker,2013-08-29 23:35:00,
2013-08-29 18:45:00,86.3,76.6,29.95,NNW,346,0.0,0.0,73,0.00,,,0.00,WeatherTracker,2013-08-29 23:45:00,
2013-08-29 18:50:00,85.8,76.1,29.95,NNW,346,0.0,0.0,73,0.00,,,0.00,WeatherTracker,2013-08-29 23:50:00,
2013-08-29 19:00:00,84.6,75.4,29.95,NNW,346,0.0,0.0,74,0.00,,,0.00,WeatherTracker,2013-08-30 00:00:00,
2013-08-29 19:10:00,83.3,74.9,29.95,NNW,346,0.0,0.0,76,0.00,,,0.00,WeatherTracker,2013-08-30 00:10:00,
2013-08-29 19:15:00,82.8,75.2,29.95,NNW,346,0.0,0.0,78,0.00,,,0.00,WeatherTracker,2013-08-30 00:15:00,
2013-08-29 19:25:00,82.0,75.2,29.95,NNW,346,0.0,0.0,80,0.00,,,0.00,WeatherTracker,2013-08-30 00:25:00,
2013-08-29 19:30:00,81.4,74.6,29.96,NNW,346,0.0,0.0,80,0.00,,,0.00,WeatherTracker,2013-08-30 00:30:00,
2013-08-29 19:40:00,80.7,74.7,29.96,NNW,346,0.0,0.0,82,0.00,,,0.00,WeatherTracker,2013-08-30 00:40:00,
2013-08-29 19:45:00,80.5,74.5,29.96,NNW,346,0.0,0.0,82,0.00,,,0.00,WeatherTracker,2013-08-30 00:45:00,
2013-08-29 19:55:00,79.8,74.2,29.96,NNW,346,0.0,0.0,83,0.00,,,0.00,WeatherTracker,2013-08-30 00:55:00,
2013-08-29 20:05:00,79.3,74.0,29.96,NNW,346,0.0,0.0,84,0.00,,,0.00,WeatherTracker,2013-08-30 01:05:00,
2013-08-29 20:15:00,79.0,73.7,29.96,NNW,346,0.0,0.0,84,0.00,,,0.00,WeatherTracker,2013-08-30 01:15:00,
2013-08-29 20:20:00,78.9,74.0,29.96,NNW,346,0.0,0.0,85,0.00,,,0.00,WeatherTracker,2013-08-30 01:20:00,
2013-08-29 20:30:00,78.6,73.7,29.96,NNW,346,0.0,0.0,85,0.00,,,0.00,WeatherTracker,2013-08-30 01:30:00,
2013-08-29 20:35:00,78.4,73.9,29.96,NNW,346,0.0,0.0,86,0.00,,,0.00,WeatherTracker,2013-08-30 01:35:00,
2013-08-29 20:45:00,78.1,73.6,29.97,NNW,346,0.0,0.0,86,0.00,,,0.00,WeatherTracker,2013-08-30 01:45:00,
2013-08-29 20:55:00,77.9,73.7,29.97,NNW,346,0.0,0.0,87,0.00,,,0.00,WeatherTracker,2013-08-30 01:55:00,
2013-08-29 21:05:00,77.8,73.6,29.97,NNW,346,0.0,0.0,87,0.00,,,0.00,WeatherTracker,2013-08-30 02:05:00,
2013-08-29 21:15:00,77.6,73.8,29.97,NNW,346,0.0,0.0,88,0.00,,,0.00,WeatherTracker,2013-08-30 02:15:00,
2013-08-29 21:25:00,77.3,73.5,29.97,NNW,346,0.0,0.0,88,0.00,,,0.00,WeatherTracker,2013-08-30 02:25:00,
2013-08-29 21:35:00,77.1,73.6,29.97,NNW,346,0.0,0.0,89,0.00,,,0.00,WeatherTracker,2013-08-30 02:35:00,
2013-08-29 21:40:00,77.0,73.5,29.96,NNW,346,0.0,0.0,89,0.00,,,0.00,WeatherTracker,2013-08-30 02:40:00,
2013-08-29 21:45:00,76.9,73.4,29.96,NNW,346,0.0,0.0,89,0.00,,,0.00,WeatherTracker,2013-08-30 02:45:00,
2013-08-29 21:50:00,76.9,73.4,29.96,NNW,346,0.0,0.0,89,0.00,,,0.00,WeatherTracker,2013-08-30 02:50:00,
2013-08-29 21:55:00,76.8,73.3,29.96,NNW,346,0.0,0.0,89,0.00,,,0.00,WeatherTracker,2013-08-30 02:55:00,
2013-08-29 22:05:00,76.7,73.2,29.96,NNW,346,0.0,0.0,89,0.00,,,0.00,WeatherTracker,2013-08-30 03:05:00,
2013-08-29 22:15:00,76.6,73.4,29.96,NNW,346,0.0,0.0,90,0.00,,,0.00,WeatherTracker,2013-08-30 03:15:00,
2013-08-29 22:20:00,76.5,73.3,29.96,NNW,346,0.0,0.0,90,0.00,,,0.00,WeatherTracker,2013-08-30 03:20:00,
2013-08-29 22:30:00,76.4,73.2,29.96,NNW,346,0.0,0.0,90,0.00,,,0.00,WeatherTracker,2013-08-30 03:30:00,
2013-08-29 22:35:00,76.4,73.2,29.97,NNW,346,0.0,0.0,90,0.00,,,0.00,WeatherTracker,2013-08-30 03:35:00,
2013-08-29 22:45:00,76.2,73.0,29.96,NNW,346,0.0,0.0,90,0.00,,,0.00,WeatherTracker,2013-08-30 03:45:00,
2013-08-29 22:50:00,76.2,73.0,29.96,NNW,346,0.0,0.0,90,0.00,,,0.00,WeatherTracker,2013-08-30 03:50:00,
2013-08-29 23:00:00,76.1,72.9,29.96,NNW,346,0.0,0.0,90,0.00,,,0.00,WeatherTracker,2013-08-30 04:00:00,
2013-08-29 23:05:00,76.0,72.8,29.96,NNW,346,0.0,0.0,90,0.00,,,0.00,WeatherTracker,2013-08-30 04:05:00,
2013-08-29 23:10:00,76.0,72.8,29.96,NNW,346,0.0,0.0,90,0.00,,,0.00,WeatherTracker,2013-08-30 04:10:00,
2013-08-29 23:15:00,75.9,73.1,29.96,NNW,346,0.0,0.0,91,0.00,,,0.00,WeatherTracker,2013-08-30 04:15:00,
2013-08-29 23:20:00,75.9,73.1,29.95,NNW,346,0.0,0.0,91,0.00,,,0.00,WeatherTracker,2013-08-30 04:20:00,
2013-08-29 23:25:00,75.8,73.0,29.95,NNW,346,0.0,0.0,91,0.00,,,0.00,WeatherTracker,2013-08-30 04:25:00,
2013-08-29 23:35:00,75.8,73.0,29.96,NNW,346,0.0,0.0,91,0.00,,,0.00,WeatherTracker,2013-08-30 04:35:00,
2013-08-29 23:40:00,75.8,73.0,29.95,NNW,346,0.0,0.0,91,0.00,,,0.00,WeatherTracker,2013-08-30 04:40:00,
2013-08-29 23:45:00,75.7,72.9,29.95,NNW,346,0.0,0.0,91,0.00,,,0.00,WeatherTracker,2013-08-30 04:45:00,
2013-08-29 23:55:00,75.6,72.8,29.95,NNW,346,0.0,0.0,91,0.00,,,0.00,WeatherTracker,2013-08-30 04:55:00,